(°C)
-8°
-7°
-6°
-4°
-2°
-1°
-1°
(°C)
-14°
-13°
-11°
-9°
-7°
-6°
-5°
ÉÉK
ÉÉK
ÉÉK
ÉÉK
ÉÉK
É
ÉÉN
(km/h)
9-17
9-16
9-16
8-14
6-12
5-10
4-8
(mm)
0
0
0
0
0
0
0
(%)
0
0
0
0
0
0
0

Napfelkelte

/ 15°
sun-icon
UV 2
07:16
17:11
Hold (fogyó félhold) (232°)
22:00
10:06

METAR Wilmington Manor (KILG)-ért

Idő Feltételek Hőmérséklet/
Harmatpont
Szél Látási viszonyok Időjárás Felhők Légnyomás Módosítás Nyers
VFR -9.4°C / °C 20º 8kt >10km - Few Clouds 3800ft 1030 - KILG 221251Z 02008KT 10SM FEW038 M09/M18 A3044 RMK AO2 SLP307 T10941178 $
VFR -8.9°C / °C 350º 9kt >10km - Overcast 3700ft 1031 - KILG 221151Z 35009KT 10SM OVC037 M09/M18 A3045 RMK AO2 SLP313 T10891183 11056 21094 53014 $
VFR -9.4°C / °C 360º 7kt >10km - Clear 1030 - KILG 221051Z AUTO 36007KT 10SM CLR M09/M18 A3042 RMK AO2 SLP302 T10941178 $
VFR -8.9°C / °C 350º 7kt >10km - Clear 1030 - KILG 220951Z AUTO 35007KT 10SM CLR M09/M18 A3041 RMK AO2 SLP300 T10891178 $
VFR -8.3°C / °C 360º 8kt >10km - Clear 1029 - KILG 220851Z AUTO 36008KT 10SM CLR M08/M17 A3041 RMK AO2 SLP298 T10831172 58017 $
VFR -7.2°C / °C 360º 7kt >10km - Few Clouds 3400ft 1030 - KILG 220751Z AUTO 36007KT 10SM FEW034 M07/M17 A3043 RMK AO2 SLP306 T10721172 $
VFR -6.7°C / °C 20º 9kt >10km - Clear 1031 - KILG 220651Z AUTO 02009KT 10SM CLR M07/M17 A3044 RMK AO2 SLP310 T10671172 $
VFR -5.6°C / °C 20º 11kt >10km - Clear 1031 - KILG 220551Z AUTO 02011KT 10SM CLR M06/M18 A3046 RMK AO2 SLP315 T10561183 11044 21056 58017 $
VFR -5°C / °C 30º 12kt >10km - Clear 1032 - KILG 220451Z AUTO 03012KT 10SM CLR M05/M19 A3049 RMK AO2 SLP324 T10501194 410281089 $
VFR -4.4°C / °C 40º 14kt >10km - Clear 1033 - KILG 220351Z AUTO 04014KT 10SM CLR M04/M20 A3051 RMK AO2 SLP332 T10441200 $
VFR -4.4°C / °C 30º 9kt >10km - Clear 1033 - KILG 220251Z AUTO 03009KT 10SM CLR M04/M18 A3051 RMK AO2 SLP332 T10441178 58009 $
VFR -4.4°C / °C 40º 12kt >10km - Clear 1033 - KILG 220151Z AUTO 04012KT 10SM CLR M04/M18 A3052 RMK AO2 SLP337 T10441178 $
VFR -4.4°C / °C 30º 11kt >10km - Clear 1033 - KILG 220051Z 03011KT 10SM CLR M04/M16 A3053 RMK AO2 SLP338 T10441161 $
VFR -4.4°C / °C 10º 7kt >10km - Clear 1034 - KILG 212351Z 01007KT 10SM CLR M04/M15 A3054 RMK AO2 SLP341 T10441150 11028 21044 52010 $
VFR -4.4°C / °C 20º 8kt >10km - Clear 1033 - KILG 212251Z 02008KT 10SM CLR M04/M16 A3052 RMK AO2 SLP337 T10441156 $
VFR -3.9°C / °C 20º 8kt >10km - Clear 1033 - KILG 212151Z 02008KT 10SM CLR M04/M16 A3052 RMK AO2 SLP335 T10391156 $
VFR -3.9°C / °C 20º 10kt >10km - Clear 1033 - KILG 212051Z 02010KT 10SM CLR M04/M16 A3051 RMK AO2 SLP331 T10391156 55006
VFR -2.8°C / °C 10º 6kt >10km - Clear 1032 - KILG 211951Z 01006KT 10SM CLR M03/M16 A3050 RMK AO2 SLP328 T10281156 $
VFR -3.3°C / °C 50º 8kt >10km - Clear 1032 - KILG 211851Z 05008KT 10SM CLR M03/M16 A3050 RMK AO2 SLP329 T10331161 $
VFR -4.4°C / °C 40º 9kt >10km - Clear 1033 - KILG 211751Z 04009KT 10SM CLR M04/M16 A3052 RMK AO2 SLP337 T10441161 11039 21089 58014 $
VFR -5°C / °C 10º 10kt Gust 17kt >10km - Clear 1034 - KILG 211651Z 01010G17KT 10SM CLR M05/M16 A3054 RMK AO2 SLP344 T10501156 $
VFR -5.6°C / °C 20º 8kt >10km - Clear 1035 - KILG 211551Z 02008KT 10SM CLR M06/M16 A3057 RMK AO2 SLP352 T10561156 $
VFR -7.2°C / °C 350º 13kt >10km - Clear 1035 - KILG 211451Z 35013KT 10SM CLR M07/M16 A3057 RMK AO2 SLP351 T10721156 51015 $
VFR -7.8°C / °C 360º 10kt >10km - Clear 1034 - KILG 211351Z 36010KT 10SM CLR M08/M16 A3055 RMK AO2 SLP346 T10781156 $

VFR

-9.4°C / °C

[Több]
Szél 20º 8kt
Látási viszonyok >10km
Időjárás -
Felhők Few Clouds 3800ft
Légnyomás 1030
Módosítás -
Nyers KILG 221251Z 02008KT 10SM FEW038 M09/M18 A3044 RMK AO2 SLP307 T10941178 $

VFR

-8.9°C / °C

[Több]
Szél 350º 9kt
Látási viszonyok >10km
Időjárás -
Felhők Overcast 3700ft
Légnyomás 1031
Módosítás -
Nyers KILG 221151Z 35009KT 10SM OVC037 M09/M18 A3045 RMK AO2 SLP313 T10891183 11056 21094 53014 $

VFR

-9.4°C / °C

[Több]
Szél 360º 7kt
Látási viszonyok >10km
Időjárás -
Felhők Clear
Légnyomás 1030
Módosítás -
Nyers KILG 221051Z AUTO 36007KT 10SM CLR M09/M18 A3042 RMK AO2 SLP302 T10941178 $

VFR

-8.9°C / °C

[Több]
Szél 350º 7kt
Látási viszonyok >10km
Időjárás -
Felhők Clear
Légnyomás 1030
Módosítás -
Nyers KILG 220951Z AUTO 35007KT 10SM CLR M09/M18 A3041 RMK AO2 SLP300 T10891178 $

VFR

-8.3°C / °C

[Több]
Szél 360º 8kt
Látási viszonyok >10km
Időjárás -
Felhők Clear
Légnyomás 1029
Módosítás -
Nyers KILG 220851Z AUTO 36008KT 10SM CLR M08/M17 A3041 RMK AO2 SLP298 T10831172 58017 $

VFR

-7.2°C / °C

[Több]
Szél 360º 7kt
Látási viszonyok >10km
Időjárás -
Felhők Few Clouds 3400ft
Légnyomás 1030
Módosítás -
Nyers KILG 220751Z AUTO 36007KT 10SM FEW034 M07/M17 A3043 RMK AO2 SLP306 T10721172 $

VFR

-6.7°C / °C

[Több]
Szél 20º 9kt
Látási viszonyok >10km
Időjárás -
Felhők Clear
Légnyomás 1031
Módosítás -
Nyers KILG 220651Z AUTO 02009KT 10SM CLR M07/M17 A3044 RMK AO2 SLP310 T10671172 $

VFR

-5.6°C / °C

[Több]
Szél 20º 11kt
Látási viszonyok >10km
Időjárás -
Felhők Clear
Légnyomás 1031
Módosítás -
Nyers KILG 220551Z AUTO 02011KT 10SM CLR M06/M18 A3046 RMK AO2 SLP315 T10561183 11044 21056 58017 $

VFR

-5°C / °C

[Több]
Szél 30º 12kt
Látási viszonyok >10km
Időjárás -
Felhők Clear
Légnyomás 1032
Módosítás -
Nyers KILG 220451Z AUTO 03012KT 10SM CLR M05/M19 A3049 RMK AO2 SLP324 T10501194 410281089 $

VFR

-4.4°C / °C

[Több]
Szél 40º 14kt
Látási viszonyok >10km
Időjárás -
Felhők Clear
Légnyomás 1033
Módosítás -
Nyers KILG 220351Z AUTO 04014KT 10SM CLR M04/M20 A3051 RMK AO2 SLP332 T10441200 $

VFR

-4.4°C / °C

[Több]
Szél 30º 9kt
Látási viszonyok >10km
Időjárás -
Felhők Clear
Légnyomás 1033
Módosítás -
Nyers KILG 220251Z AUTO 03009KT 10SM CLR M04/M18 A3051 RMK AO2 SLP332 T10441178 58009 $

VFR

-4.4°C / °C

[Több]
Szél 40º 12kt
Látási viszonyok >10km
Időjárás -
Felhők Clear
Légnyomás 1033
Módosítás -
Nyers KILG 220151Z AUTO 04012KT 10SM CLR M04/M18 A3052 RMK AO2 SLP337 T10441178 $

VFR

-4.4°C / °C

[Több]
Szél 30º 11kt
Látási viszonyok >10km
Időjárás -
Felhők Clear
Légnyomás 1033
Módosítás -
Nyers KILG 220051Z 03011KT 10SM CLR M04/M16 A3053 RMK AO2 SLP338 T10441161 $

VFR

-4.4°C / °C

[Több]
Szél 10º 7kt
Látási viszonyok >10km
Időjárás -
Felhők Clear
Légnyomás 1034
Módosítás -
Nyers KILG 212351Z 01007KT 10SM CLR M04/M15 A3054 RMK AO2 SLP341 T10441150 11028 21044 52010 $

VFR

-4.4°C / °C

[Több]
Szél 20º 8kt
Látási viszonyok >10km
Időjárás -
Felhők Clear
Légnyomás 1033
Módosítás -
Nyers KILG 212251Z 02008KT 10SM CLR M04/M16 A3052 RMK AO2 SLP337 T10441156 $

VFR

-3.9°C / °C

[Több]
Szél 20º 8kt
Látási viszonyok >10km
Időjárás -
Felhők Clear
Légnyomás 1033
Módosítás -
Nyers KILG 212151Z 02008KT 10SM CLR M04/M16 A3052 RMK AO2 SLP335 T10391156 $

VFR

-3.9°C / °C

[Több]
Szél 20º 10kt
Látási viszonyok >10km
Időjárás -
Felhők Clear
Légnyomás 1033
Módosítás -
Nyers KILG 212051Z 02010KT 10SM CLR M04/M16 A3051 RMK AO2 SLP331 T10391156 55006

VFR

-2.8°C / °C

[Több]
Szél 10º 6kt
Látási viszonyok >10km
Időjárás -
Felhők Clear
Légnyomás 1032
Módosítás -
Nyers KILG 211951Z 01006KT 10SM CLR M03/M16 A3050 RMK AO2 SLP328 T10281156 $

VFR

-3.3°C / °C

[Több]
Szél 50º 8kt
Látási viszonyok >10km
Időjárás -
Felhők Clear
Légnyomás 1032
Módosítás -
Nyers KILG 211851Z 05008KT 10SM CLR M03/M16 A3050 RMK AO2 SLP329 T10331161 $

VFR

-4.4°C / °C

[Több]
Szél 40º 9kt
Látási viszonyok >10km
Időjárás -
Felhők Clear
Légnyomás 1033
Módosítás -
Nyers KILG 211751Z 04009KT 10SM CLR M04/M16 A3052 RMK AO2 SLP337 T10441161 11039 21089 58014 $

VFR

-5°C / °C

[Több]
Szél 10º 10kt Gust 17kt
Látási viszonyok >10km
Időjárás -
Felhők Clear
Légnyomás 1034
Módosítás -
Nyers KILG 211651Z 01010G17KT 10SM CLR M05/M16 A3054 RMK AO2 SLP344 T10501156 $

VFR

-5.6°C / °C

[Több]
Szél 20º 8kt
Látási viszonyok >10km
Időjárás -
Felhők Clear
Légnyomás 1035
Módosítás -
Nyers KILG 211551Z 02008KT 10SM CLR M06/M16 A3057 RMK AO2 SLP352 T10561156 $

VFR

-7.2°C / °C

[Több]
Szél 350º 13kt
Látási viszonyok >10km
Időjárás -
Felhők Clear
Légnyomás 1035
Módosítás -
Nyers KILG 211451Z 35013KT 10SM CLR M07/M16 A3057 RMK AO2 SLP351 T10721156 51015 $

VFR

-7.8°C / °C

[Több]
Szél 360º 10kt
Látási viszonyok >10km
Időjárás -
Felhők Clear
Légnyomás 1034
Módosítás -
Nyers KILG 211351Z 36010KT 10SM CLR M08/M16 A3055 RMK AO2 SLP346 T10781156 $

TAF Wilmington Manor (KILG)-ért

From till


From till Wind 10º 7kt. Visibility 10km or more. Few Clouds 25000ft.
From till Wind variable 3kt. Visibility 10km or more. Few Clouds 20000ft.
From till Wind 240º 4kt. Visibility 10km or more. Scattered Clouds 20000ft.

Nyers: KILG 221120Z 2212/2312 01007KT P6SM FEW250 FM221900 VRB03KT P6SM FEW200 FM230700 24004KT P6SM SCT200

Radarkép és ultrarövid távú csapadék-előrejelzés a következő helyhez: Wilmington Manor

Szitáló eső
Enyhe
Mérsékelt
Erős
Nagyon nehéz
Jégeső

A helyzetjelző helye: Wilmington Manor. Ez az animáció bemutatja a csapadékradart az elmúlt órára vonatkozóan, valamint előrejelzést az elkövetkező 1 órára. A szitáló eső vagy enyhe hóesés láthatatlan lehet a radar számára. A csapadék intenzitása színkóddal van jelölve, a világoskéktől a narancssárgáig.

Aktuális műholdas képek ezen a helyen: Wilmington Manor, USA

A helyszín jelölő a következő helyen van elhelyezve: Wilmington Manor. [Több]

A valós idejű műholdas kép ötvözi a nappali látható fényt az éjszakai infravörös sugárzással. Éjjel a kép nem sötét, mivel az infravörös sugárzás képes érzékelni a hőmérséklet-különbségeket. Sajnos az alacsony felhőket és a ködöt nehéz megkülönböztetni a talaj hőmérsékletétől, így az éjszaka folyamán szinte láthatatlanok lehetnek. A Meteosat európai műholdképei valós időben frissülnek minden 5 percben. A GOES-16/GOES-17 (Észak- és Dél-Amerika) és Himawari (Ázsia) képei 10 percenként frissülnek.